SL-16 DEB, 22388

Orbit data source: Space-Track

SL-16 DEB, 22388 is space debris in LEO originally from a launch on Fri, 25 Dec 1992 UTC launched from the Tyuratam Missile And Space Complex (TTMTR). Debris objects in space refer to the collection of defunct objects orbiting the Earth. Examples of debris include non-operational satellites, rocket bodies, and fragments generated from explosions, collisions, or faulty payload assembly.

Loading next visibility...
Identifier
22388, 1992-093CD
Orbit
LEO
Country
Flag of CISCIS
Related business
Manufacturer
Unknown
Mission
Spacecraft
Bus & Motor
Unknown
Mass
Unknown
Launch date (UTC)
1992-12-25 (33 years ago)
Launch vehicle
Unknown
Launch site
Tyuratam Missile And Space Complex (TTMTR)
Object type
Payload
Rocket body
Debris
Shape & HBR
Unknown shape, 0.1 m
Radar Cross Section
Medium (>0.1 m² and <1 m²)

Expand to show TLE details & history
Last TLE update: 2 days ago

TLE from 2 days ago
0 SL-16 DEB
1 22388U 92093CD  26171.46878580  .00001013  00000-0  49077-3 0  9994
2 22388  70.9624 184.5266 0098180 247.9825 263.0625 14.18380738712870
Epoch: 2026-06-20T11:15Z
TLE epoch observation values (Epoch: 2026-06-20T11:15:03.093Z)
Latitude
28.32538°
Longitude
-83.58107°
Altitude
843.043 km
Speed
7.429 km/s
True Right ascension
23h 35m 27s
True Declination
28° 11' 01"
Sunlit
Object was in daylight at epoch
Visualization orbit readout
Latitude
Unknown
Longitude
Unknown
Altitude
Unknown
Speed
Unknown
Apparent Right ascension
Unknown
Apparent Declination
Unknown
Sunlit
N/A
Visualization observer readout
Local Sidereal Time
04:00:00
Azimuth
Unknown
Elevation
Unknown
Doppler factor
Unknown
Orbital elements
Apogee altitude
899.516 km
Perigee altitude
758.002 km
Semi-major axis
7,206.896 km
Eccentricity
0.00982
Inclination
70.9624°
RAAN
184.5266°
Arg. of periapsis
247.9825°
True anomaly
261.9474°
Mean anomaly
263.0625°
Eccentric anomaly
262.50478°
Mean motion
3.54749 °/min
Orbital period
101.48 mins
BSTAR
0.00049077
Loading maneuver chart data...
Computing Atmospheric mass density...
Loading historical data...
Loading historical data...
Loading historical data...
Loading historical data...
Loading historical data...
Loading historical data...
Loading historical data...

Documentation

Showing up to 5 results
|